Regional Weather Roundup
Issued by NWS

Home | Current Version | Previous Version | Graphics & Text | Print | Product List | Glossary Off
Versions: 1 2 3 4 5 6 7 8 9 10 11 12 13 14 15 16 17 18 19 20 21 22 23 24 25 26 27 28 29 30 31 32 33 34 35 36 37 38 39 40 41 42 43 44 45 46 47 48 49 50

000
ASUS43 KMPX 070110
RWRMN
WEATHER ROUNDUP FOR MINNESOTA
NATIONAL WEATHER SERVICE TWIN CITIES/CHANHASSEN MN
700 PM CST SAT FEB 06 2016


NOTE: "FAIR" INDICATES FEW OR NO CLOUDS BELOW 12,000 FEET WITH NO
SIGNIFICANT WEATHER AND/OR OBSTRUCTIONS TO VISIBILITY. N/A MEANS
CURRENT SKY AND/OR WEATHER CONDITIONS ARE NOT AVAILABLE.

MNZ060>063-068>070-070200-
   Twin Cities Metro

CITY           SKY/WX    TMP DP  RH WIND       PRES   REMARKS
TWIN CITIES    CLOUDY    36  26  67 S14G22    29.85F
ST PAUL        CLOUDY    34  27  75 S14       29.86F WCI  25
CRYSTAL        CLOUDY    36  27  69 SW13      29.83S
BLAINE         CLOUDY    37  28  70 S13G20    29.82F
LAKEVILLE      CLOUDY    32  28  86 S9G20     29.86S WCI  24
EDEN PRAIRIE   CLOUDY    36  27  69 SW20G26   29.84F
SOUTH ST PAUL  CLOUDY    35  27  74 S12G20    29.86S WCI  26
LAKE ELMO      CLOUDY    32  28  86 S14       29.86S WCI  22
$$
MNZ001>005-007-008-013>017-022>024-027-028-070200-
   Northwest Minnesota

CITY           SKY/WX    TMP DP  RH WIND       PRES   REMARKS
BEMIDJI        CLOUDY    34  27  75 S7        29.62S WCI  28
HALLOCK        PTCLDY    34  30  86 S13       29.49F WCI  25
ROSEAU         CLOUDY    34  28  80 S10       29.53F WCI  26
WARROAD        CLOUDY    30  27  86 SE8       29.55F WCI  23
THIEF RVR FALL CLOUDY    36  30  80 SW15      29.56F
CROOKSTON      CLOUDY    37  32  81 SW13      29.58F
FOSSTON        CLOUDY    32  28  86 S16       29.61F WCI  21
DETROIT LAKES  CLOUDY    37  32  81 SW15G21   29.67F
MOORHEAD       PTCLDY    37  34  87 SW10      29.66F
PARK RAPIDS    CLOUDY    36  28  73 SW13      29.65S
MAHNOMEN       CLOUDY    35  32  90 SW16G24   29.62F WCI  25
$$
MNZ006-009>011-018-025>026-070200-
   North Central Minnesota

CITY           SKY/WX    TMP DP  RH WIND       PRES   REMARKS
BAUDETTE       CLOUDY    32  27  81 SE8       29.57F WCI  25
FLAG ISLAND    LGT SNOW  28  27  93 SE10      29.55F VSB 1   WCI  19
INTL FALLS     LGT SNOW  30  29  96 SE7       29.62F FOG     WCI  23
WASKISH        CLOUDY    36  27  69 SE6       29.59F
LONGVILLE      DRIZZLE   36  28  75 S6        29.66F
GRAND RAPIDS   CLOUDY    34  25  69 S15       29.67S WCI  24
ORR            MIX PCPN  30  27  86 SE6       29.63F WCI  24
COOK           CLOUDY    32  27  80 S7        29.66F WCI  26
WALKER         CLOUDY    35  27  71 SW12G18   29.65S WCI  27
$$
MNZ012-019>021-037-070200-
   Northeast Minnesota

CITY           SKY/WX    TMP DP  RH WIND       PRES   REMARKS
DULUTH         CLOUDY    32  24  72 S15       29.72F WCI  22
ELY            LGT SNOW  28  28 100 S6        29.69F WCI  22
HIBBING        CLOUDY    32  24  72 S6        29.67F WCI  26
EVELETH        CLOUDY    32  27  80 S12       29.70F WCI  23
DULUTH HARBOR  CLOUDY    36  28  75 SW10G16   29.77F
TWO HARBORS    CLOUDY    36  28  75 S7        29.74F
SILVER BAY     LGT SNOW  30  28  93 CALM      29.74F
GRAND MARAIS     N/A     31  24  75 NE7       29.81F WCI  24
G MARAIS ARPRT LGT SNOW  23  19  86 SE3       29.75F
$$
MNZ029>031-032-039>041-046>048-054>057-064-070200-
   West Central Minnesota

CITY           SKY/WX    TMP DP  RH WIND       PRES   REMARKS
FERGUS FALLS   DRIZZLE   34  34 100 SW9       29.75F WCI  26
WHEATON        CLOUDY    37  34  87 SW10      29.78S
MORRIS         CLOUDY    36  30  80 SW12      29.77R
ALEXANDRIA     LGT SNOW  34  30  85 W21G26    29.77R FOG     WCI  22
ELBOW LAKE     LGT RAIN  33  32  95 SW13      29.76F WCI  24
WADENA         LGT RAIN  34  30  86 SW16      29.70R WCI  23
GLENWOOD       MIX PCPN  34  30  86 SW12      29.76S WCI  25
APPLETON       CLOUDY    37  30  75 SW10      29.78S
BENSON         CLOUDY    36  30  80 W9        29.77F
ORTONVILLE     CLOUDY    37  28  70 SW8       29.78R
MADISON        CLOUDY    36  30  80 SW7       29.79S
WILLMAR        MOCLDY    36  32  87 SW7       29.80S
$$
MNZ033>034-036-042>043-049>051-058-059-070200-
   Central Minnesota

CITY           SKY/WX    TMP DP  RH WIND       PRES   REMARKS
ST CLOUD       CLOUDY    35  27  72 S15       29.78S WCI  25
SAUK CENTRE    CLOUDY    33  31  90 S10       29.74F WCI  25
PAYNESVILLE    DRIZZLE   34  30  86 S6        29.78F WCI  28
AITKIN         MIX PCPN  37  25  60 S14       29.68F
PINE RIVER     CLOUDY    36  28  75 S7        29.71F
BRAINERD       CLOUDY    35  26  69 S13       29.70F WCI  26
STAPLES        CLOUDY    36  28  75 W12       29.74R
LONG PRAIRIE   CLOUDY    32  32 100 S14G21    29.72F WCI  22
LITTLE FALLS   MIX PCPN  34  28  80 S10       29.74F WCI  26
LITCHFIELD     DRIZZLE   36  30  80 S3        29.81R
BUFFALO        CLOUDY    35  28  75 S10G18    29.83S WCI  27
MAPLE LAKE     LGT RAIN  35  30  81 S8        29.82S WCI  29
$$
MNZ037-044-045-052-053-070200-
   East Central Minnesota

CITY           SKY/WX    TMP DP  RH WIND       PRES   REMARKS
PRINCETON      CLOUDY    36  28  75 S12       29.79S
MORA           CLOUDY    34  27  75 S12       29.79F WCI  25
CAMBRIDGE      CLOUDY    36  27  69 S12G17    29.79R
RUSH CITY      CLOUDY    33  27  76 S9        29.80S WCI  26
MOOSE LAKE     CLOUDY    32  27  80 S12       29.72F WCI  23
HINCKLEY       CLOUDY    34  28  80 S12       29.78F WCI  25
CLOQUET        CLOUDY    34  25  69 S10       29.72F WCI  26
MCGREGOR       CLOUDY    34  27  75 S12       29.71F WCI  25
$$
MNZ071>073-080-081-089-090-097-098-070200-
   Southwest Minnesota

CITY           SKY/WX    TMP DP  RH WIND       PRES   REMARKS
MONTEVIDEO     CLOUDY    36  30  80 W12       29.81S
GRANITE FALLS  CLOUDY    37  31  79 S14       29.82S
CANBY          CLOUDY    38  32  77 SW22G28   29.77F
MARSHALL       CLOUDY    36  26  67 SW18      29.80F
REDWOOD FALLS  CLOUDY    35  28  75 SW14      29.84R WCI  26
OLIVIA         CLOUDY    34  32  93 SW15      29.80F WCI  24
PIPESTONE        N/A     34  21  60 SW14      29.82  WCI  24
WINDOM         CLOUDY    34  28  80 SW13      29.84F WCI  25
WORTHINGTON    CLOUDY    32  25  74 SW21G26   29.86S WCI  20
JACKSON        CLOUDY    34  27  75 SW18      29.87F WCI  23
TRACY          CLOUDY    35  29  79 SW20G26   29.82R WCI  24
SLAYTON        PTCLDY    32  28  86 SW17      29.83R WCI  21
$$
MNZ065>067-074>077-082>085-091>093-070200-
   South Central Minnesota

CITY           SKY/WX    TMP DP  RH WIND       PRES   REMARKS
MANKATO        CLOUDY    34  27  75 S14G20    29.86S WCI  24
NEW ULM        CLOUDY    36  28  75 SW13      29.85R
ST JAMES       CLOUDY    36  30  80 S16       29.86F
FAIRMONT       CLOUDY    34  27  75 S18       29.87F WCI  23
GLENCOE        CLOUDY    35  31  88 S13       29.82F WCI  26
FARIBAULT      MOCLDY    34  28  80 S13G22    29.88F WCI  25
OWATONNA       CLOUDY    32  27  80 S20       29.88F WCI  20
WASECA         PTCLDY    32  28  86 S21       29.89F WCI  20
ALBERT LEA     CLOUDY    30  28  93 S12G20    29.91F WCI  21
$$
MNZ078>079-086>088-094>096-070200-
   Southeast Minnesota

CITY           SKY/WX    TMP DP  RH WIND       PRES   REMARKS
ROCHESTER      CLOUDY    28  24  85 S21G28    29.92F WCI  15
RED WING       CLOUDY    32  27  80 S8G17     29.90F WCI  25
STANTON        CLOUDY    32  28  82 S15G24    29.86F WCI  22
DODGE CENTER   CLOUDY    28  27  93 S23       29.90F FOG     WCI  14
WINONA         CLOUDY    32  27  80 S7        29.98F WCI  26
AUSTIN         CLOUDY    27  27 100 S15       29.94F WCI  15
PRESTON        CLOUDY    27  25  93 S17       29.96F FOG     WCI  14
$$
ABBREVIATIONS USED IN REMARKS
   TC - TEMPERATURES IN CELSIUS
  WCI - WIND CHILL INDEX
   HX - HEAT INDEX
  VSB - VISIBILITY
$$



USA.gov is the U.S. government's official web portal to all federal, state and local government web resources and services.